Regional Weather Roundup
Issued by NWS Charleston, SC

Current Version | Previous Version | Graphics & Text | Print | Product List | Glossary On
Versions: 1 2 3 4 5 6 7 8 9 10 11 12 13 14 15 16 17 18 19 20 21 22 23 24 25 26 27 28 29 30 31 32 33 34 35 36 37 38 39 40 41 42 43 44 45 46 47 48 49 50
000 ASUS42 KCHS 050312 RWRCHS REGIONAL WEATHER ROUNDUP NATIONAL WEATHER SERVICE CHARLESTON SC 1100 PM EDT SAT JUL 04 2015 NOTE: "FAIR" INDICATES FEW OR NO CLOUDS BELOW 12,000 FEET WITH NO SIGNIFICANT WEATHER AND/OR OBSTRUCTIONS TO VISIBILITY. NOT ALL STATIONS ARE QUALITY CONTROLLED BY THE NATIONAL WEATHER SERVICE. USE DATA WITH CAUTION...ESPECIALLY DEWPOINT OBSERVATIONS. SCZ027-030-031-034>040-042>050-050400- ...SOUTHEAST SOUTH CAROLINA... CITY SKY/WX TMP DP RH WIND PRES REMARKS N CHARLESTON CLOUDY 73 70 90 SW6 30.10R WATERFRONT PAR N/A 76 71 84 VRB2 30.07R MOUNT PLEASANT FAIR 75 72 88 S5 30.11R FOG JOHNS ISLAND FAIR 73 72 94 CALM 30.11R PINOPOLIS NOT AVBL MONCKS CORNER FAIR 73 70 88 CALM 30.09R FOG SUMMERVILLE FAIR 72 72 100 S3 30.10R BEAUFORT MCAS CLOUDY 74 71 91 SW6 30.12R BEAUFORT ARPT FAIR 73 73 100 CALM 30.11R HILTON HEAD IS CLOUDY 73 73 100 CALM 30.13R WALTERBORO CLOUDY 72 70 94 CALM 30.12R ALLENDALE FAIR 72 70 94 CALM 30.10R ...SOUTHERN MIDLANDS AND PEE DEE... CITY SKY/WX TMP DP RH WIND PRES REMARKS GEORGETOWN NOT AVBL KINGSTREE NOT AVBL ORANGEBURG MOCLDY 73 68 84 SW9 30.10R BARNWELL FAIR 73 70 88 SW3 30.11R AIKEN NOT AVBL MANNING LGT RAIN 75 64 69 SW6 30.09R COLUMBIA MOCLDY 79 67 66 SW15 30.08R SUMTER CLOUDY 77 67 69 SW10 30.06R FLORENCE MOCLDY 81 72 74 SW9 30.05R MYRTLE BEACH PTCLDY 82 70 65 SW12 30.09R N MYRTLE BEACH MOCLDY 82 75 79 SW13 30.07R $$ GAZ063-065-086>088-099>101-113>116-118-119-134>141-150-050400- ...SOUTHEAST GEORGIA... CITY SKY/WX TMP DP RH WIND PRES REMARKS SAVANNAH ARPT MOCLDY 74 71 91 SW8 30.13R HUNTER AAF MOCLDY 73 73 100 W5 30.11R FORT STEWART CLOUDY 74 71 91 S2 30.11R STATESBORO NOT AVBL SYLVANIA PTCLDY 73 73 99 CALM 30.12R CLAXTON FAIR 72 72 100 CALM 30.12F FOG ...CSRA...CENTRAL AND FAR SOUTHEAST GEORGIA... CITY SKY/WX TMP DP RH WIND PRES REMARKS THOMSON CLEAR 76 74 92 S5 30.15R AUGUSTA-BUSH PTCLDY 73 70 90 S5 30.09R AUGUSTA-DANIEL PTCLDY 76 70 82 S5 30.10S SWAINSBORO FAIR N/A N/A N/A S3 30.12S VIDALIA MOCLDY 73 72 94 SW7 30.13R EASTMAN FAIR 75 75 100 S3 30.15R HAZLEHURST FAIR 74 74 100 S5 30.12S ALMA CLOUDY 73 71 93 CALM 30.14R WAYCROSS CLOUDY 75 75 99 CALM 30.14S JESUP FAIR 75 73 94 CALM 30.13R BAXLEY FAIR 73 72 94 CALM 30.13S BRUNSWICK CLOUDY 73 73 100 SW3 30.13S SAINT SIMONS CLOUDY 75 72 90 S3 30.12R $$ SCZ027-028-034-036>038-045-046-048>050-GAZ119-141-050400- ...LAKE AND SUPPLEMENTAL COASTAL OBSERVATIONS... STATION/POSITION TIME TEMP WIND PRES WAVE SWELL AIR SEA DIR/SP/G HT/PER HT/PER/DIR (UTC) (F) (DEG/KT/KT) (MB) (FT/S) (FT/S/D) UPR LAKE MARION NOT AVBL WINYAH BAY NOT AVBL LAKE MURRAY 0200 82 210/ 9/ 12 1017.3R ACE BASIN NERRS NOT AVBL FORT PULASKI 0200 76 84 220/ 1/ 2 1019.7R SAPELO ISLAND 0200 77 220/ 10 1020.0R $$ ANZ835-935-AMZ111-154-330-350-352-354-370-450-454-472-050400- ...C-MAN AND BUOY OBSERVATIONS... STATION/POSITION TIME TEMP WIND PRES WAVE SWELL AIR SEA DIR/SP/G HT/PER HT/PER/DIR (UTC) (F) (DEG/KT/KT) (MB) (FT/S) (FT/S/D) BUOY 41004 0250 81 82 220/ 12/ 14 1018.8S 3/ 9 2/ 9 BUOY 41008 0250 78 79 200/ 14/ 16 1019.9R 2/ 9 2/130/ 9 FOLLY BEACH CMAN 0200 74 220/ 5/ 7 1018.8F CAPERS NEARSHORE 0208 80 240/ 12/ 14 1018.7R FRIPP NEARSHORE 0200 80 190/ 10/ 12 1018.4 STATION/POSITION TIME TEMP WIND PRES WAVE SWELL AIR SEA DIR/SP/G HT/PER HT/PER/DIR (UTC) (F) (DEG/KT/KT) (MB) (FT/S) (FT/S/D) 5E ST. MARYS GA 0221 77 N/A 2/ 9 FRYING PAN BUOY 0250 81 79 210/ 16/ 17 1019.2R 4/ 6 2/140/ 9 BUOY 41025 0250 81 81 230/ 23/ 29 1016.9R 6/ 6 2/170/ 9 CAPE LOOKOUT NC 0200 80 220/ 14/ 18 1017.6R BUOY 41002 0250 82 80 230/ 6/ 8 1022.0R 5/ 8 5/130/ 8 BUOY 41010 0220 84 85 140/ 8/ 10 1021.2R ST AUGUSTINE FL 0300 76 73 190/ 5/ 6 1020.9S $$

USA.gov is the U.S. government's official web portal to all federal, state and local government web resources and services.